Flag for Netherlands Weather past 2 weeks in Nijmegen, Netherlands

Now
63 °F

Partly sunny.


Feels Like: 63 °F
Forecast: 53 / 64 °F
Wind: 16 mph from Southwest

Location: Volkel

Current Time: Aug 30, 2014 at 1:23:06 PM

Latest Report: Aug 30, 2014 at 12:55 PM


Visibility: N/A

Pressure: 29.98 "Hg

Humidity: 94%

Dew point: 61 °F

Location of NijmegenLocation

Historic Weather in Nijmegen — Graph

°F

Nijmegen temperature yesterday

Maximum temperature yesterday: 72 °F (at 3:25 PM)
Minimum temperature yesterday: 55 °F (at 6:55 AM)
Average temperature yesterday: 63 °F

Past Weeks' High & Low Weather Summary

 TemperatureHumidityPressure
High72 °F (Aug 28, 1:25 PM)100% (Aug 15, 9:55 PM)30.09 "Hg (Aug 15, 9:55 PM)
Low41 °F (Aug 25, 6:04 AM)46% (Aug 27, 5:55 PM)29.62 "Hg (Aug 26, 3:55 AM)
Average57 °F85%29.91 "Hg
* Reported Aug 15 12:55 PM — Aug 30 12:04 PM, Nijmegen, Weather by CustomWeather, © 2014

Note: Actual official high and low records may vary slightly from our data, if they occured in-between our weather recording intervals... More about our weather records

Advertising

Nijmegen weather history for previous 24 hours

 ConditionsComfort  
Time TempWeatherWind HumidityBarometerVisibility
12:04 PM
Aug 30
61 °FFog.14 mph100%29.98 "Hg2 mi
11:55 AM61 °FDrizzle. Broken clouds.15 mph94%29.98 "Hg2 mi
11:25 AM61 °FDrizzle. Mostly cloudy.14 mph94%29.98 "Hg3 mi
11:04 AM61 °FLight rain. Overcast.14 mph94%29.98 "HgN/A
10:56 AM61 °FMore clouds than sun.14 mph94%29.98 "HgN/A
10:25 AM63 °FMostly cloudy.14 mph88%29.98 "HgN/A
9:55 AM63 °FMore clouds than sun.14 mph88%29.98 "HgN/A
9:25 AM63 °FMostly cloudy.14 mph83%29.98 "HgN/A
8:55 AM61 °FMostly cloudy.15 mph88%29.98 "HgN/A
8:25 AM61 °FMostly cloudy.14 mph88%29.98 "HgN/A
8:00 AM61 °FMore clouds than sun.12 mph88%29.95 "HgN/A
7:55 AM61 °FOvercast.12 mph88%29.95 "HgN/A
7:25 AM59 °FMostly cloudy.10 mph94%29.95 "HgN/A
6:55 AM59 °FMostly cloudy.12 mph94%29.95 "HgN/A
6:25 AM61 °FMostly cloudy.13 mph83%29.95 "HgN/A
5:55 AM61 °FMostly cloudy.13 mph83%29.95 "HgN/A
5:25 AM61 °FMostly cloudy.14 mph83%29.95 "HgN/A
4:55 AM61 °FOvercast.13 mph83%29.98 "HgN/A
4:25 AM61 °FPassing clouds.12 mph83%29.98 "HgN/A
3:55 AM61 °FMostly cloudy.12 mph83%29.98 "HgN/A
3:25 AM61 °FMostly cloudy.12 mph83%29.98 "HgN/A
2:55 AM61 °FMostly cloudy.12 mph83%29.98 "HgN/A
2:25 AM61 °FPartly cloudy.12 mph83%29.98 "HgN/A
1:55 AM61 °FMostly cloudy.10 mph83%29.98 "HgN/A
1:25 AM61 °FOvercast.10 mph77%29.98 "HgN/A
12:55 AM59 °FPassing clouds.8 mph82%29.98 "HgN/A
12:25 AM61 °FOvercast.9 mph77%29.98 "HgN/A
11:55 PM
Aug 29
57 °FOvercast.7 mph88%29.98 "HgN/A
11:25 PM59 °FPassing clouds.7 mph88%29.98 "HgN/A
10:55 PM59 °FPassing clouds.2 mph94%29.98 "HgN/A
8:55 PM64 °FMore clouds than sun.3 mph78%29.95 "HgN/A
8:25 PM64 °FPartly sunny.5 mph78%29.95 "HgN/A
7:55 PM66 °FMore clouds than sun.8 mph73%29.95 "HgN/A
7:25 PM66 °FBroken clouds.6 mph78%29.95 "HgN/A
6:55 PM68 °FPartly sunny.8 mph69%29.95 "HgN/A
6:25 PM68 °FPartly sunny.8 mph69%29.98 "HgN/A
5:55 PM68 °FMore clouds than sun.12 mph69%29.98 "HgN/A
5:25 PM68 °FBroken clouds.12 mph69%29.98 "HgN/A
4:55 PM68 °FBroken clouds.10 mph64%29.98 "HgN/A
4:25 PM70 °FBroken clouds.13 mph60%29.98 "HgN/A
3:55 PM70 °FScattered clouds.13 mph60%29.98 "HgN/A
3:25 PM72 °FScattered clouds.15 mph57%29.98 "HgN/A
2:55 PM70 °FBroken clouds.14 mph60%29.98 "HgN/A
2:25 PM70 °FScattered clouds.14 mph60%29.98 "HgN/A
1:55 PM70 °FPassing clouds.14 mph60%29.98 "HgN/A
1:25 PM68 °FScattered clouds.12 mph64%29.98 "HgN/A
Weather by CustomWeather, © 2014

See weather overviewHow to use our weather pages